Home > Weather > Koror > Past weeks

Flag for Palau Weather for the Past 2 Weeks in Koror, Palau

Now
84 °F

Partly sunny.


Feels Like: 92 °F
Forecast: 78 / 87 °F
Wind: 9 mph from Northeast

Location: Koror / Palau Island

Current Time: Feb 6, 2016 at 4:59:36 PM

Latest Report: Feb 6, 2016 at 3:50 PM


Visibility: 14 mi

Pressure: 29.78 "Hg

Humidity: 74%

Dew point: 75 °F

Location of KororLocation

Historic Weather in Koror — Graph

°F

Koror Temperature Yesterday

Maximum temperature yesterday: 86 °F (at 12:50 PM)
Minimum temperature yesterday: 77 °F (at 1:50 AM)
Average temperature yesterday: 81 °F

High & Low Weather Summary for the Past Weeks

 TemperatureHumidityPressure
High86 °F (Jan 22, 2:55 PM)100% (Jan 28, 7:54 PM)29.97 "Hg (Jan 28, 7:54 PM)
Low75 °F (Jan 24, 4:54 AM)62% (Jan 24, 11:50 AM)29.75 "Hg (Jan 31, 4:54 PM)
Average81 °F82%29.85 "Hg
* Reported Jan 22 2:55 PM — Feb 6 2:50 PM, Koror, Weather by CustomWeather, © 2016

Note: Actual official high and low records may vary slightly from our data, if they occured in-between our weather recording intervals... More about our weather records

Advertising

Koror Weather History for the Previous 24 Hours

 ConditionsComfort  
Time TempWeatherWind HumidityBarometerVisibility
2:50 PM
Sat, Feb 6
86 °FPartly sunny.8 mph70%29.78 "Hg14 mi
1:50 PM84 °FPartly sunny.10 mph74%29.79 "Hg14 mi
12:50 PM84 °FPartly sunny.12 mph74%29.81 "Hg14 mi
11:50 AM81 °FPartly sunny.8 mph84%29.83 "Hg14 mi
10:50 AM79 °FSprinkles. Mostly cloudy.10 mph89%29.84 "Hg8 mi
9:50 AM82 °FPartly sunny.9 mph79%29.85 "Hg14 mi
8:50 AM82 °FBroken clouds.8 mph79%29.86 "Hg14 mi
7:50 AM79 °FBroken clouds.No wind89%29.81 "Hg15 mi
6:50 AM77 °FBroken clouds.No wind89%29.80 "Hg15 mi
5:50 AM77 °FPassing clouds.No wind89%29.78 "Hg14 mi
4:54 AM77 °FPassing clouds.5 mph89%29.77 "Hg14 mi
3:50 AM79 °FPassing clouds.8 mph84%29.76 "Hg14 mi
2:55 AM79 °FPassing clouds.8 mph84%29.76 "Hg14 mi
1:50 AM79 °FPassing clouds.12 mph84%29.75 "Hg14 mi
12:50 AM79 °FPassing clouds.10 mph84%29.76 "Hg14 mi
11:50 PM
Fri, Feb 5
79 °FPartly cloudy.14 mph84%29.79 "Hg14 mi
10:50 PM79 °FPartly cloudy.12 mph84%29.79 "Hg14 mi
9:50 PM79 °FPartly cloudy.15 mph79%29.80 "Hg14 mi
8:50 PM79 °FPartly cloudy.14 mph79%29.80 "Hg14 mi
7:50 PM79 °FPartly cloudy.10 mph79%29.80 "Hg14 mi
6:50 PM79 °FPartly cloudy.12 mph79%29.79 "Hg14 mi
5:50 PM81 °FBroken clouds.14 mph74%29.76 "Hg14 mi
4:50 PM82 °FBroken clouds.15 mph70%29.76 "Hg14 mi
Weather by CustomWeather, © 2016

See weather overviewHow to use our weather pages